Hourly Data Report for September 06, 2017

All times are specified in Local Standard Time (LST). Add 1 hour to adjust for Daylight Saving Time where and when it is observed.

MONCTON INTL A
NEW BRUNSWICK

46°06'44.000" N
64°40'43.000" W
70.70 m
8103201
71705
YQM

Download Data

Hourly Data (September 2017)
Hourly Data Report for September 6, 2017
Temp Definition
°C
Dew Point Temp Definition
°C
Rel Hum Definition
%
Wind Dir Definition
10's deg

Wind Spd Definition
km/h
Visibility Definition
km
Stn Press Definition
kPa
Hmdx Definition


Wind Chill Definition


Weather Definition


TIME
00:00 Legend Double Dagger 20.4 17.3 82 20 24 24.1 100.31 26   LegendNANA
01:00 Legend Double Dagger 20.2 16.9 82 20 22 24.1 100.35 25   LegendNANA
02:00 Legend Double Dagger 19.9 16.6 81 20 20 24.1 100.37     Mostly Cloudy
03:00 Legend Double Dagger 19.6 16.1 80 18 23 24.1 100.33     LegendNANA
04:00
05:00 Legend Double Dagger 19.9 16.7 81 20 34 24.1 100.40     Mostly Cloudy
06:00 Legend Double Dagger 20.4 17.3 82 21 26 19.3 100.48 26   LegendNANA
07:00 Legend Double Dagger 20.6 17.7 83 20 25 19.3 100.56 26   LegendNANA
08:00 Legend Double Dagger 21.9 17.8 78 21 25 24.1 100.60 28   Mostly Cloudy
09:00 Legend Double Dagger 23.2 18.2 73 20 32 24.1 100.63 29   LegendNANA
10:00 Legend Double Dagger 23.3 18.5 74 20 21 24.1 100.68 30   LegendNANA
11:00 Legend Double Dagger 23.6 19.0 75 19 27 24.1 100.72 30   Mostly Cloudy
12:00 Legend Double Dagger 23.9 19.1 74 20 26 24.1 100.73 31   LegendNANA
13:00 Legend Double Dagger 24.7 19.1 71 18 31 24.1 100.70 32   LegendNANA
14:00 Legend Double Dagger 24.8 18.9 70 18 17 19.3 100.66 31   Mostly Cloudy
15:00 Legend Double Dagger 21.6 20.1 91 19 17 19.3 100.68 29   Rain Showers
16:00 Legend Double Dagger 21.1 20.2 95 20 13 19.3 100.68 29   Thunderstorms,Moderate Rain Showers
17:00 Legend Double Dagger 19.2 18.6 96 19 8 9.7 100.69     Thunderstorms,Heavy Rain Showers,Fog
18:00 Legend Double Dagger 19.7 18.9 95 16 9 24.1 100.72     LegendNANA
19:00 Legend Double Dagger 19.6 19.0 96 16 5 19.3 100.75     Rain Showers
20:00 Legend Double Dagger 19.5 19.0 97 14 7 19.3 100.79     Rain
21:00 Legend Double Dagger 19.7 19.1 97 16 7 19.3 100.78     Rain
22:00 Legend Double Dagger 19.4 18.9 97 13 5 16.1 100.76     Rain
23:00 Legend Double Dagger 19.7 19.1 96 17 8 8.1 100.78     Rain,Fog

Notes on Data Quality.

Legend

  • E = Estimated
  • M = Missing
  • NA = Not Available
  • ‡ = Partner data that is not subject to review by the National Climate Archives
Date modified: